Change the Weather History Date:

Friday, April 4, 2014

  Actual Average Record
Temperature  
Mean Temperature 47 °F 47 °F  
Max Temperature 58 °F 57 °F 82 °F (1976)
Min Temperature 36 °F 37 °F 23 °F (1975)
Degree Days  
Heating Degree Days 18 18  
Month to date heating degree days 62 75  
Since 1 July heating degree days 5924 5245  
Cooling Degree Days 0 0  
Month to date cooling degree days 0 0  
Year to date cooling degree days 0 1  
Moisture  
Dew Point 43 °F    
Average Humidity 82    
Maximum Humidity 100    
Minimum Humidity 64    
Precipitation  
Precipitation 0.20 in 0.11 in 1.43 in (1968)
Month to date precipitation 3.01 0.48  
Year to date precipitation 7.50 7.97  
Sea Level Pressure  
Sea Level Pressure 29.66 in    
Wind  
Wind Speed 17 mph (WSW)    
Max Wind Speed 35 mph    
Max Gust Speed 46 mph    
Visibility 6 miles    
Events Fog , Rain    
T = Trace of Precipitation, MM = Missing Value Source: NWS Daily Summary

Daily Weather History Graph

Daily Weather History Graph

Search for Another Location

Airport or City:

Trip Planner

Search our weather history database for the weather conditions in past years. The results will help you decide how hot, cold, wet, or windy it might be!

Date:

Astronomy

Apr. 04, 2014 Rise Set
Actual Time 7:20 AM EDT 8:09 PM EDT
Civil Twilight 6:53 AM EDT 8:36 PM EDT
Nautical Twilight 6:20 AM EDT 9:09 PM EDT
Astronomical Twilight 5:46 AM EDT 9:43 PM EDT
Moon 10:36 AM EDT 12:27 AM EDT
Length of Visible Light 13h 43m
Length of Day
12h 48m
Waxing Crescent, 25% of the Moon is Illuminated
Apr 4
Waxing Crescent
Apr 7
First Quarter
Apr 15
Full
Apr 22
Last Quarter
Apr 29
New

Hourly Weather History & Observations

Time (EDT) Temp. Windchill Dew Point Humidity Pressure Visibility Wind Dir Wind Speed Gust Speed Precip Events Conditions
12:38 AM 43.0 °F 40.3 °F 42.1 °F 97% 29.74 in 0.5 mi NNE 4.6 mph - N/A Fog Fog
12:51 AM 42.8 °F - 42.8 °F 100% 29.75 in 0.2 mi Calm Calm - N/A Fog Fog
12:53 AM 43.0 °F - 42.1 °F 97% 29.75 in 0.2 mi Calm Calm - N/A Fog Fog
1:53 AM 43.0 °F 40.3 °F 42.1 °F 97% 29.73 in 0.2 mi SSE 4.6 mph - N/A Fog Fog
2:02 AM 43.0 °F 40.3 °F 43.0 °F 100% 29.72 in 0.8 mi SE 4.6 mph - N/A   Overcast
2:05 AM 43.0 °F 39.5 °F 43.0 °F 100% 29.72 in 1.2 mi SE 5.8 mph - N/A   Overcast
2:25 AM 44.1 °F 40.8 °F 43.0 °F 96% 29.71 in 2.0 mi SSE 5.8 mph - N/A   Overcast
2:53 AM 45.0 °F 40.6 °F 44.1 °F 97% 29.68 in 2.5 mi SSE 8.1 mph - N/A   Overcast
3:20 AM 46.9 °F - 46.0 °F 97% 29.66 in 2.5 mi SE 5.8 mph - 0.01 in Rain Light Rain
3:53 AM 48.9 °F - 48.9 °F 100% 29.66 in 2.0 mi South 4.6 mph - 0.06 in Rain Light Rain
4:08 AM 48.9 °F - 48.0 °F 97% 29.66 in 1.8 mi South 4.6 mph - 0.04 in Rain Rain
4:53 AM 50.0 °F - 48.9 °F 96% 29.62 in 2.0 mi SSE 3.5 mph - 0.11 in Rain Light Rain
5:53 AM 51.1 °F - 51.1 °F 100% 29.54 in 2.0 mi SE 9.2 mph - 0.01 in   Partly Cloudy
6:13 AM 52.0 °F - 52.0 °F 100% 29.52 in 4.0 mi SE 12.7 mph - N/A   Clear
6:53 AM 53.1 °F - 52.0 °F 96% 29.52 in 7.0 mi SE 12.7 mph - 0.00 in Rain Light Rain
7:53 AM 54.0 °F - 53.1 °F 97% 29.54 in 10.0 mi South 8.1 mph - 0.00 in   Partly Cloudy
8:03 AM 54.0 °F - 53.1 °F 97% 29.54 in 10.0 mi South 9.2 mph - N/A   Mostly Cloudy
8:24 AM 55.0 °F - 53.1 °F 93% 29.51 in 10.0 mi South 12.7 mph - N/A   Overcast
8:45 AM 55.9 °F - 53.1 °F 90% 29.45 in 10.0 mi South 17.3 mph 25.3 mph N/A   Mostly Cloudy
8:53 AM 55.9 °F - 53.1 °F 90% 29.46 in 10.0 mi SW 10.4 mph - N/A   Scattered Clouds
9:20 AM 57.0 °F - 53.1 °F 87% 29.52 in 10.0 mi WSW 20.7 mph 25.3 mph N/A   Mostly Cloudy
9:34 AM 57.0 °F - 53.1 °F 87% 29.52 in 10.0 mi WSW 16.1 mph 24.2 mph N/A   Overcast
9:53 AM 57.0 °F - 53.1 °F 87% 29.51 in 10.0 mi WSW 13.8 mph 24.2 mph N/A   Overcast
10:25 AM 57.0 °F - 53.1 °F 87% 29.52 in 10.0 mi WSW 10.4 mph - N/A   Overcast
10:53 AM 57.0 °F - 53.1 °F 87% 29.52 in 8.0 mi WSW 19.6 mph 27.6 mph N/A   Overcast
11:25 AM 57.0 °F - 54.0 °F 89% 29.53 in 2.0 mi WSW 18.4 mph 25.3 mph 0.01 in Rain Light Rain
11:32 AM 57.0 °F - 54.0 °F 89% 29.54 in 2.5 mi WSW 20.7 mph 32.2 mph 0.01 in Rain Light Rain
11:38 AM 52.0 °F - 48.9 °F 89% 29.55 in 1.8 mi West 27.6 mph 46.0 mph 0.01 in Rain Light Rain
11:45 AM 51.1 °F - 48.0 °F 89% 29.56 in 2.0 mi West 21.9 mph 39.1 mph 0.02 in Rain Light Rain
11:50 AM 50.0 °F - 46.4 °F 87% 29.56 in 3.0 mi West 24.2 mph 34.5 mph 0.02 in Rain Light Rain
11:53 AM 50.0 °F - 46.9 °F 89% 29.56 in 3.0 mi West 24.2 mph 34.5 mph 0.02 in Rain Light Rain
12:11 PM 48.0 °F - 46.0 °F 93% 29.58 in 1.8 mi West 21.9 mph 33.4 mph 0.00 in Rain Light Rain
12:18 PM 46.9 °F - 45.0 °F 93% 29.58 in 2.0 mi West 20.7 mph 33.4 mph 0.00 in   Overcast
12:34 PM 46.9 °F - 43.0 °F 86% 29.59 in 5.0 mi West 20.7 mph 32.2 mph 0.00 in   Overcast
12:45 PM 46.9 °F - 43.0 °F 86% 29.59 in 6.0 mi West 15.0 mph 29.9 mph 0.00 in   Overcast
12:53 PM 46.9 °F - 43.0 °F 86% 29.60 in 10.0 mi West 24.2 mph 32.2 mph 0.00 in   Overcast
1:53 PM 44.1 °F 34.8 °F 37.9 °F 79% 29.64 in 10.0 mi West 25.3 mph 36.8 mph N/A   Overcast
2:53 PM 42.1 °F 33.3 °F 36.0 °F 79% 29.68 in 10.0 mi West 19.6 mph 39.1 mph N/A   Overcast
3:53 PM 41.0 °F 31.9 °F 35.1 °F 79% 29.71 in 10.0 mi West 19.6 mph 35.7 mph N/A   Overcast
4:53 PM 41.0 °F 30.2 °F 33.1 °F 73% 29.74 in 10.0 mi West 27.6 mph 38.0 mph N/A   Overcast
5:53 PM 39.9 °F 29.7 °F 33.1 °F 77% 29.77 in 10.0 mi West 23.0 mph 34.5 mph N/A   Overcast
6:53 PM 39.0 °F 29.0 °F 30.9 °F 73% 29.81 in 10.0 mi West 20.7 mph 31.1 mph N/A   Overcast
7:53 PM 39.0 °F 28.5 °F 28.9 °F 67% 29.84 in 10.0 mi West 23.0 mph 34.5 mph N/A   Overcast
8:53 PM 39.0 °F 29.3 °F 28.9 °F 67% 29.87 in 10.0 mi West 19.6 mph 33.4 mph N/A   Overcast
9:23 PM 37.9 °F 27.3 °F 30.0 °F 73% 29.89 in 10.0 mi West 21.9 mph 33.4 mph N/A   Overcast
9:53 PM 37.9 °F 27.6 °F 28.0 °F 68% 29.91 in 10.0 mi West 20.7 mph 31.1 mph N/A   Overcast
10:00 PM 37.9 °F 27.6 °F 28.0 °F 68% 29.91 in 10.0 mi West 20.7 mph 33.4 mph N/A   Overcast
10:53 PM 37.0 °F 27.4 °F 27.0 °F 67% 29.93 in 10.0 mi WNW 17.3 mph 27.6 mph N/A   Overcast
11:02 PM 37.0 °F 27.4 °F 28.0 °F 70% 29.93 in 10.0 mi WNW 17.3 mph 32.2 mph N/A   Overcast
11:30 PM 37.0 °F 25.9 °F 27.0 °F 67% 29.95 in 10.0 mi West 23.0 mph 38.0 mph N/A   Overcast
11:53 PM 36.0 °F 25.0 °F 27.0 °F 70% 29.96 in 10.0 mi West 20.7 mph 27.6 mph N/A   Overcast